Location: Austin
(30.3000°N, 97.7500°W)
Time: 07:11:04
(UTC-05:00)

Cosmos 1553 Rocket - Pass Details

Date: 19 September 2023
Orbit: 940 x 1008 km, 82.9° (Epoch: 25 September)

Event Time Altitude Azimuth Distance (km) Brightness Sun altitude
Rises 05:06:18 0° 358° (N) 3,616 7.2 -28.5°
Reaches altitude 10° 05:08:49 10° 1° (N) 2,675 6.5 -28.0°
Maximum altitude 05:14:53 66° 83° (E) 1,043 4.3 -26.8°
Drops below altitude 10° 05:21:00 10° 165° (SSE) 2,703 6.3 -25.5°
Sets 05:23:33 0° 168° (SSE) 3,658 7.0 -25.0°
